Regional Weather Roundup
Issued by NWS

Home | Current Version | Previous Version | Graphics & Text | Print | Product List | Glossary On
Versions: 1 2 3 4 5 6 7 8 9 10 11 12 13 14 15 16 17 18 19 20 21 22 23 24 25 26 27 28 29 30 31 32 33 34 35 36 37 38 39 40 41 42 43 44 45 46 47 48 49 50
000
ASUS43 KLSX 201459
RWRMO

WEATHER SUMMARY FOR MISSOURI
NATIONAL WEATHER SERVICE SPRINGFIELD MO
1000 AM CDT SUN APR 20 2014

NOTE: "FAIR" INDICATES FEW OR NO CLOUDS BELOW 12,000 FEET WITH NO
       SIGNIFICANT WEATHER AND/OR OBSTRUCTIONS TO VISIBILITY.
       CURRENT SKY AND/OR WEATHER CONDITIONS ARE NOT AVAILABLE FOR
       CHILLICOTHE AND FARMINGTON.

MOZ001>031-035>038-043-044-053-054-201600-
...NORTHERN AND WESTERN MISSOURI...

CITY           SKY/WX    TMP DP  RH WIND       PRES   REMARKS
KANSAS CTY INT PTSUNNY   69  51  52 SW17G24   30.09S
KANSAS C DTWN  PTSUNNY   72  51  47 SW15      30.09S
LEE`S SUMMIT   MOSUNNY   68  50  52 SW17      30.11S
ST JOSEPH      MOSUNNY   71  51  49 SW18G28   30.06S
KIRKSVILLE     SUNNY     71  47  42 S10       30.13F

$$
MOZ066>068-077>081-088>096-101>105-201600-
...SOUTHWEST MISSOURI...

CITY           SKY/WX    TMP DP  RH WIND       PRES   REMARKS
SPRINGFIELD    SUNNY     68  51  54 S13       30.18S
JOPLIN         MOSUNNY   70  51  51 S13       30.16F

$$
MOZ032>034-039>042-045>050-055>058-069>072-201600-
...CENTRAL MISSOURI...

CITY           SKY/WX    TMP DP  RH WIND       PRES   REMARKS
COLUMBIA       SUNNY     70  49  47 S12       30.16S
JEFFERSON CITY SUNNY     69  48  47 VRB5      30.16F
ROLLA          SUNNY     69  47  45 S14       30.17F
SEDALIA        MOSUNNY   70  52  52 S14       30.15S
OSAGE BEACH    SUNNY     72  48  43 S3        30.18S

$$
MOZ051-052-059>065-201600-
...EAST CENTRAL MISSOURI...

CITY           SKY/WX    TMP DP  RH WIND       PRES   REMARKS
ST LOUIS INTL  PTSUNNY   70  41  34 S8        30.20S
SPIRIT OF STL  MOSUNNY   70  40  33 S10       30.19S
ST CHARLES     SUNNY     71  43  36 S14       30.19S

$$
MOZ072>076-082>087-097>100-106>115-201600-
...SOUTH CENTRAL AND SOUTHEAST MISSOURI...

CITY           SKY/WX    TMP DP  RH WIND       PRES   REMARKS
CAPE GIRARDEAU MOSUNNY   68  46  45 S6        30.22R
FARMINGTON     MOSUNNY   66  45  45 S8        30.23F
POPLAR BLUFF   MOSUNNY   66  46  48 SE5       30.21R
WEST PLAINS    SUNNY     68  43  40 SE8       30.22S

$$



USA.gov is the U.S. government's official web portal to all federal, state and local government web resources and services.